When you browse on this site, cookies collect data to enhance your experience and personalize the content and advertising you see.
Visit our Privacy Policy to learn more. By continuing to use the site, you agree to this use of cookies and data.
  • In Spain
  • List of Countries
  • For 7 days
  • Water Temperature
  • Satellite Maps
  • Weather Map
  • Weather Widgets
  • user-avatar
    Login

    Hourly Weather Sana

    Today, 25 June, Tuesday

    Time Temperature Precipitation Wind Pressure Humidity
    00:00 +23°C° 0.1 mm 1 mps 580 mmHg 42%
    01:00 +23°C° 0 mm 1 mps 579 mmHg 42%
    02:00 +22°C° 0 mm 1 mps 579 mmHg 42%
    03:00 +22°C° 0 mm 1 mps 578 mmHg 45%
    04:00 +20°C° 0 mm 0 mps 578 mmHg 44%
    05:00 +20°C° 0 mm 0 mps 579 mmHg 44%
    06:00 +19°C° 0 mm 0 mps 579 mmHg 43%
    07:00 +23°C° 0 mm 1 mps 580 mmHg 38%
    08:00 +24°C° 0 mm 1 mps 580 mmHg 33%
    09:00 +26°C° 0 mm 3 mps 581 mmHg 27%
    10:00 +27°C° 0 mm 4 mps 581 mmHg 24%
    11:00 +28°C° 0 mm 6 mps 582 mmHg 21%
    12:00 +29°C° 0 mm 7 mps 582 mmHg 19%
    13:00 +29°C° 0 mm 7 mps 582 mmHg 19%
    14:00 +29°C° 0 mm 7 mps 582 mmHg 19%
    15:00 +29°C° 0 mm 6 mps 581 mmHg 18%
    16:00 +28°C° 0.1 mm 7 mps 581 mmHg 21%
    17:00 +28°C° 0.1 mm 7 mps 581 mmHg 24%
    18:00 +27°C° 0.1 mm 7 mps 581 mmHg 27%
    19:00 +27°C° 0.1 mm 6 mps 581 mmHg 28%
    20:00 +26°C° 0.1 mm 5 mps 581 mmHg 29%
    21:00 +26°C° 0.1 mm 4 mps 581 mmHg 30%
    22:00 +25°C° 0 mm 4 mps 581 mmHg 31%
    23:00 +25°C° 0 mm 4 mps 581 mmHg 32%

    Tomorrow, 26 June, Wednesday

    Time Temperature Precipitation Wind Pressure Humidity
    00:00 +23°C° 0 mm 4 mps 581 mmHg 33%
    01:00 +24°C° 0 mm 3 mps 580 mmHg 35%
    02:00 +23°C° 0 mm 2 mps 579 mmHg 37%
    03:00 +22°C° 0 mm 1 mps 578 mmHg 38%
    04:00 +22°C° 0 mm 1 mps 579 mmHg 38%
    05:00 +21°C° 0 mm 2 mps 579 mmHg 37%
    06:00 +21°C° 0 mm 2 mps 580 mmHg 37%
    07:00 +24°C° 0 mm 3 mps 580 mmHg 33%
    08:00 +26°C° 0 mm 4 mps 581 mmHg 28%
    09:00 +27°C° 0 mm 5 mps 582 mmHg 24%
    10:00 +28°C° 0 mm 6 mps 582 mmHg 23%
    11:00 +29°C° 0 mm 7 mps 582 mmHg 21%
    12:00 +29°C° 0 mm 8 mps 582 mmHg 20%
    13:00 +29°C° 0 mm 8 mps 581 mmHg 20%
    14:00 +30°C° 0 mm 7 mps 581 mmHg 20%
    15:00 +30°C° 0 mm 6 mps 581 mmHg 20%
    16:00 +29°C° 0 mm 6 mps 581 mmHg 20%
    17:00 +29°C° 0 mm 6 mps 580 mmHg 21%
    18:00 +28°C° 0 mm 6 mps 580 mmHg 22%
    19:00 +28°C° 0 mm 5 mps 580 mmHg 24%
    20:00 +27°C° 0 mm 4 mps 580 mmHg 26%
    21:00 +26°C° 0 mm 3 mps 581 mmHg 27%
    22:00 +25°C° 0 mm 3 mps 580 mmHg 30%
    23:00 +25°C° 0 mm 3 mps 579 mmHg 33%

    Day after tomorrow, 27 June, Thursday

    Time Temperature Precipitation Wind Pressure Humidity
    00:00 +24°C° 0 mm 2 mps 579 mmHg 36%
    01:00 +24°C° 0 mm 2 mps 578 mmHg 37%
    02:00 +23°C° 0 mm 2 mps 578 mmHg 37%
    03:00 +23°C° 0 mm 2 mps 577 mmHg 38%
    04:00 +23°C° 0 mm 2 mps 577 mmHg 37%
    05:00 +23°C° 0 mm 2 mps 578 mmHg 35%
    06:00 +21°C° 0 mm 2 mps 578 mmHg 33%
    07:00 +23°C° 0 mm 4 mps 579 mmHg 27%
    08:00 +27°C° 0 mm 6 mps 580 mmHg 22%
    09:00 +29°C° 0 mm 8 mps 581 mmHg 17%
    10:00 +31°C° 0 mm 8 mps 581 mmHg 15%
    11:00 +31°C° 0 mm 9 mps 581 mmHg 14%
    12:00 +32°C° 0 mm 9 mps 581 mmHg 13%
    13:00 +32°C° 0 mm 9 mps 581 mmHg 13%
    14:00 +33°C° 0 mm 9 mps 580 mmHg 13%
    15:00 +33°C° 0 mm 9 mps 580 mmHg 13%
    16:00 +32°C° 0 mm 8 mps 580 mmHg 14%
    17:00 +31°C° 0 mm 8 mps 580 mmHg 15%
    18:00 +30°C° 0 mm 7 mps 579 mmHg 16%
    19:00 +29°C° 0 mm 6 mps 579 mmHg 17%
    20:00 +28°C° 0 mm 5 mps 579 mmHg 18%
    21:00 +27°C° 0 mm 4 mps 579 mmHg 19%
    22:00 +26°C° 0 mm 4 mps 579 mmHg 20%
    23:00 +25°C° 0 mm 3 mps 578 mmHg 20%

    28 June, Friday

    Time Temperature Precipitation Wind Pressure Humidity
    00:00 +25°C° 0 mm 2 mps 578 mmHg 21%
    01:00 +24°C° 0 mm 2 mps 577 mmHg 21%
    02:00 +23°C° 0 mm 2 mps 576 mmHg 21%
    03:00 +23°C° 0 mm 1 mps 576 mmHg 21%
    04:00 +23°C° 0 mm 2 mps 576 mmHg 21%
    05:00 +21°C° 0 mm 2 mps 576 mmHg 21%
    06:00 +21°C° 0 mm 2 mps 576 mmHg 21%
    07:00 +24°C° 0 mm 2 mps 577 mmHg 19%
    08:00 +26°C° 0 mm 3 mps 579 mmHg 16%
    09:00 +28°C° 0 mm 3 mps 580 mmHg 14%
    10:00 +29°C° 0 mm 5 mps 580 mmHg 14%
    11:00 +30°C° 0 mm 6 mps 580 mmHg 13%
    12:00 +32°C° 0 mm 8 mps 580 mmHg 13%
    13:00 +32°C° 0 mm 7 mps 580 mmHg 13%
    14:00 +32°C° 0 mm 7 mps 580 mmHg 13%
    15:00 +32°C° 0 mm 7 mps 579 mmHg 13%
    16:00 +32°C° 0 mm 7 mps 579 mmHg 13%
    17:00 +31°C° 0 mm 8 mps 579 mmHg 14%
    18:00 +29°C° 0 mm 8 mps 579 mmHg 14%
    19:00 +28°C° 0 mm 7 mps 579 mmHg 16%
    20:00 +28°C° 0 mm 5 mps 579 mmHg 18%
    21:00 +27°C° 0 mm 4 mps 579 mmHg 20%
    22:00 +26°C° 0 mm 3 mps 578 mmHg 21%
    23:00 +25°C° 0 mm 3 mps 578 mmHg 22%

    29 June, Saturday

    Time Temperature Precipitation Wind Pressure Humidity
    00:00 +24°C° 0 mm 2 mps 578 mmHg 23%
    01:00 +24°C° 0 mm 2 mps 577 mmHg 23%
    02:00 +23°C° 0 mm 2 mps 577 mmHg 24%
    03:00 +23°C° 0 mm 2 mps 577 mmHg 25%
    04:00 +22°C° 0 mm 1 mps 577 mmHg 27%
    05:00 +22°C° 0 mm 1 mps 577 mmHg 29%
    06:00 +22°C° 0 mm 1 mps 577 mmHg 31%
    07:00 +24°C° 0 mm 2 mps 578 mmHg 27%
    08:00 +26°C° 0 mm 3 mps 579 mmHg 23%
    09:00 +28°C° 0 mm 4 mps 581 mmHg 19%
    10:00 +29°C° 0 mm 6 mps 581 mmHg 17%
    11:00 +30°C° 0 mm 7 mps 581 mmHg 15%
    12:00 +32°C° 0 mm 8 mps 581 mmHg 13%
    13:00 +32°C° 0 mm 8 mps 581 mmHg 13%
    14:00 +32°C° 0 mm 7 mps 580 mmHg 14%
    15:00 +32°C° 0 mm 6 mps 580 mmHg 15%
    16:00 +30°C° 0.1 mm 6 mps 580 mmHg 17%
    17:00 +30°C° 0.1 mm 6 mps 580 mmHg 19%
    18:00 +29°C° 0.1 mm 6 mps 579 mmHg 21%
    19:00 +28°C° 0 mm 5 mps 579 mmHg 25%
    20:00 +27°C° 0 mm 4 mps 579 mmHg 28%
    21:00 +26°C° 0 mm 3 mps 579 mmHg 32%
    22:00 +25°C° 0 mm 2 mps 579 mmHg 33%
    23:00 +25°C° 0 mm 2 mps 579 mmHg 35%

    30 June, Sunday

    Time Temperature Precipitation Wind Pressure Humidity
    00:00 +24°C° 0 mm 2 mps 578 mmHg 36%
    01:00 +24°C° 0 mm 2 mps 578 mmHg 37%
    02:00 +23°C° 0 mm 1 mps 578 mmHg 37%
    03:00 +23°C° 0 mm 1 mps 577 mmHg 37%
    04:00 +22°C° 0 mm 1 mps 577 mmHg 38%
    05:00 +22°C° 0 mm 1 mps 577 mmHg 40%
    06:00 +20°C° 0 mm 0 mps 577 mmHg 41%
    07:00 +23°C° 0 mm 1 mps 578 mmHg 37%
    08:00 +25°C° 0 mm 1 mps 579 mmHg 33%
    09:00 +26°C° 0 mm 2 mps 580 mmHg 29%
    10:00 +27°C° 0 mm 3 mps 580 mmHg 25%
    11:00 +29°C° 0 mm 4 mps 581 mmHg 22%
    12:00 +30°C° 0 mm 5 mps 581 mmHg 19%
    13:00 +30°C° 0.1 mm 5 mps 581 mmHg 20%
    14:00 +30°C° 0.1 mm 5 mps 580 mmHg 22%
    15:00 +29°C° 0.1 mm 5 mps 580 mmHg 24%
    16:00 +29°C° 0.1 mm 5 mps 580 mmHg 25%
    17:00 +28°C° 0.1 mm 5 mps 579 mmHg 26%
    18:00 +28°C° 0.1 mm 5 mps 579 mmHg 28%
    19:00 +27°C° 0 mm 4 mps 579 mmHg 30%
    20:00 +27°C° 0 mm 3 mps 579 mmHg 32%
    21:00 +26°C° 0 mm 2 mps 580 mmHg 35%
    22:00 +25°C° 0 mm 2 mps 579 mmHg 38%
    23:00 +24°C° 0 mm 1 mps 579 mmHg 41%
    Show more